Location: ?????
(54.9266°N, 38.5527°E)
Time: 05:52:13
(UTC+00:00)

CZ-4 R/B - Visible Passes

Search period start: 13 July 2024 00:00
Search period end: 23 July 2024 00:00
Orbit: 679 x 747 km, 98.6° (Epoch: 12 July)

Date Brightness Start Highest point End Pass type
(mag) Time Alt. Az. Time Alt. Az. Time Alt. Az.
13 Jul 6.4 23:32:34 10° NE 23:35:23 15° E 23:38:10 10° ESE visible
15 Jul 5.6 00:17:30 10° NNE 00:21:59 32° E 00:26:24 10° SSE visible
15 Jul 6.5 23:27:04 10° NE 23:29:26 13° E 23:31:47 10° ESE visible
17 Jul 5.7 00:11:44 10° NNE 00:16:05 29° E 00:20:21 10° SSE visible
17 Jul 6.6 23:21:42 10° ENE 23:23:28 12° E 23:25:13 10° ESE visible
19 Jul 5.9 00:05:59 10° NE 00:10:09 26° E 00:14:15 10° SSE visible
19 Jul 6.8 23:16:49 10° ENE 23:17:29 10° E 23:18:10 10° E visible
21 Jul 6.0 00:00:15 10° NE 00:04:13 23° E 00:08:08 10° SE visible
